Showing default

FLOCK 4G 14, 62667

Orbit data source: Space-Track

FLOCK 4G 14, 62667 is a payload satellite owned by Planet (US) in SSO that was launched on Tue, 14 Jan 2025 UTC via an FALCON 9 launch vehicle from the Air Force Western Test Range (AFWTR). Payload-class satellites include a variety of spacecraft equipped with specific instruments for various scientific and technological missions. These include communications satellites like Starlink; space stations such as the ISS; scientific satellites like the Hubble; Earth observation satellites from companies like Planet Labs, Umbra, and HawkEye 360; GPS; miniature CubeSats for education and research; and military/defense satellites.

Loading next visibility...
Identifier
62667, 2025-009BL
Orbit
SSO
Country
Flag of USUS
Related business
Manufacturer
Planet
Mission
Operational Commercial Imaging
Bus & Motor
CUBESAT 3U, Unknown motor
Mass
5.7 kg wet, 5.7 kg dry
Launch date (UTC)
2025-01-14 (1 year ago)
Launch vehicle
FALCON 9
Launch site
Air Force Western Test Range (AFWTR)
Object type
Payload
Rocket body
Debris
Shape & HBR
Box + 2 Pan, 1.0 m
Radar Cross Section
0.072 m², Medium (>0.1 m² and < 1m²)

Expand to show TLE details & history
Last TLE update: 17 hours ago

TLE from 17 hours ago
0 FLOCK 4G 14
1 62667U 25009BL  26126.19762352  .00009225  00000-0  33589-3 0  9994
2 62667  97.4019 208.2405 0006047 106.0408 254.1498 15.28418748 72488
Epoch: 2026-05-06T04:44Z
TLE epoch observation values (Epoch: 2026-05-06T04:44:34.672Z)
Latitude
-0.00001°
Longitude
-86.96553°
Altitude
484.776 km
Speed
7.622 km/s
True Right ascension
13h 52m 57s
True Declination
0° 00' 00"
Sunlit
Object was in full shadow at epoch
Visualization orbit readout
Latitude
Unknown
Longitude
Unknown
Altitude
Unknown
Speed
Unknown
Apparent Right ascension
Unknown
Apparent Declination
Unknown
Sunlit
N/A
Visualization observer readout
Local Sidereal Time
06:04:41
Azimuth
Unknown
Elevation
Unknown
Doppler factor
Unknown
Orbital elements
Apogee altitude
481.639 km
Perigee altitude
473.348 km
Semi-major axis
6,855.63 km
Eccentricity
0.0006
Inclination
97.4019°
RAAN
208.2405°
Arg. of periapsis
106.0408°
True anomaly
254.08315°
Mean anomaly
254.1498°
Eccentric anomaly
254.11648°
Mean motion
3.8236 °/min
Orbital period
94.15 mins
BSTAR
0.00033589
Loading maneuver chart data...
Computing Atmospheric mass density...
Loading historical data...
Loading historical data...
Loading historical data...
Loading historical data...
Loading historical data...
Loading historical data...
Loading historical data...

Documentation

Showing up to 5 results
|